[[{"header":{"parameterUnit":"m.s-1","parameterCategory":1,"la1":30.2991,"la2":30.254,"lo1":-89.0895,"lo2":-89.0444,"dy":0.0017,"dx":0.0017,"nx":28,"ny":28,"refTime":"2025-08-08T21:00:00:Z","depth":0,"parameterNumber":2,"parameterNumberName":"U-component_of_WINDS"},"data":[0,0,0,0,0,0,0,0,0,0,0,0,0,0,0,0,0,0,0,0,0,0,0,0,0,0,0,0,0,0,0,0,0,0,0,0,0,0,0,0,0,0,0,0,0,0,0,0,0,0,0,0,0,0,0,0,0,0,-2.559,-2.5591,0,-2.5632,-2.5633,-2.5633,-2.5534,-2.5531,-2.5528,-2.5525,-2.557,-2.5575,-2.5579,0,0,0,0,0,0,0,0,0,0,0,0,0,-2.5427,-2.543,-2.559,-2.5591,-2.5591,-2.5632,-2.5633,-2.5633,-2.5534,-2.5531,-2.5527,-2.5523,-2.5569,-2.5574,-2.5579,0,0,0,0,0,0,0,0,0,0,0,0,0,-2.5486,-2.5431,-2.559,-2.5547,-2.5543,-2.5632,-2.5633,-2.5634,-2.5535,-2.553,-2.5526,-2.5521,-2.5567,-2.5574,-2.558,-2.5713,0,0,-2.5599,-2.5602,0,0,0,0,0,0,0,0,-2.5483,-2.5492,-2.5552,-2.555,-2.5546,-2.5573,-2.5592,-2.566,-2.5536,-2.5538,-2.5524,-2.5519,-2.5575,-2.5581,-2.5599,-2.5716,-2.5718,-2.5599,-2.5603,-2.5606,-2.5608,0,0,0,0,0,0,0,-2.5479,-2.549,-2.5607,-2.5553,-2.555,-2.5526,-2.5529,-2.5604,-2.5583,-2.5538,-2.5531,-2.5537,-2.5573,-2.5593,-2.5599,-2.5718,-2.5599,-2.5605,-2.5609,-2.5611,-2.5947,-2.5952,0,0,0,0,0,0,-2.548,-2.5487,-2.5605,-2.5608,-2.5502,-2.5533,-2.5536,-2.5569,-2.5582,-2.5579,-2.5541,-2.5532,-2.5585,-2.5592,-2.5601,-2.5757,-2.5606,-2.5612,-2.5615,-2.5942,-2.5948,-2.5954,0,0,0,0,0,0,-2.5477,-2.5491,-2.5604,-2.5546,-2.5558,-2.5541,-2.5578,-2.5572,-2.5593,-2.5584,-2.558,-2.5566,-2.5581,-2.5592,-2.5686,-2.5758,-2.5615,-2.562,-2.5936,-2.5944,-2.5951,-2.6073,0,0,0,0,0,0,-2.5473,-2.5491,-2.5541,-2.5548,-2.5562,-2.5688,-2.5583,-2.5577,-2.5604,-2.5592,-2.5606,-2.5604,-2.5579,-2.5677,-2.5692,-2.5764,-2.5625,-2.5929,-2.5939,-2.5948,-2.6062,-2.6084,-2.6102,0,0,0,0,0,-2.5467,-2.5574,-2.5544,-2.5559,-2.5623,-2.5692,-2.57,-2.5668,-2.561,-2.566,-2.5655,-2.5604,-2.5748,-2.5688,-2.5704,-2.5778,-2.5924,-2.5936,-2.5948,-2.6053,-2.608,-2.6102,0,0,0,0,0,0,-2.5577,-2.5574,-2.554,-2.5653,-2.5673,-2.5675,-2.5737,-2.5697,-2.5735,-2.5723,-2.5682,-2.5686,-2.5788,-2.5793,-2.5726,-2.5909,-2.5826,-2.5842,-2.5901,-2.5926,-2.5946,-2.5942,-2.563,0,0,0,0,0,-2.5614,-2.5669,-2.5664,-2.5764,-2.5776,-2.5755,-2.5784,-2.5757,-2.5777,-2.5786,-2.5787,-2.5809,-2.5859,-2.5893,-2.5939,-2.6063,-2.6065,-2.6123,-2.6143,-2.6159,-2.6173,-2.6239,-2.6264,-2.5992,-2.5992,-2.5991,0,0,-2.5692,-2.5697,-2.5734,-2.5786,-2.5799,-2.5857,-2.5763,-2.5829,-2.5873,-2.5796,-2.5884,-2.5887,-2.5909,-2.6019,-2.6067,-2.6026,-2.6248,-2.6174,-2.6187,-2.6191,-2.6253,-2.6279,-2.6302,-2.6,-2.5998,-2.5997,0,0,-2.5862,-2.5872,-2.5956,-2.5971,-2.5991,-2.5977,-2.5997,-2.6006,-2.6004,-2.6092,-2.6036,-2.6088,-2.6175,-2.6193,-2.6213,-2.6393,-2.6347,-2.6409,-2.6513,-2.6578,-2.6599,-2.6618,-2.6681,-2.6705,-2.6423,-2.6423,-2.6423,0,-2.5956,-2.6041,-2.6004,-2.6074,-2.6099,-2.6032,-2.6117,-2.6133,-2.6168,-2.6187,-2.614,-2.6249,-2.6259,-2.6372,-2.6416,-2.6435,-2.6457,-2.6406,-2.6599,-2.6617,-2.6634,-2.6695,-2.6719,-2.643,-2.6429,-2.6429,-2.6428,0,-2.6155,-2.6216,-2.6281,-2.6315,-2.6348,-2.6425,-2.6401,-2.6438,-2.6409,-2.64,-2.6491,-2.6502,-2.6548,-2.6573,-2.6546,-2.6683,-2.6657,-2.6606,-2.6522,-2.6668,-2.6724,-2.6747,-2.6441,-2.6438,-2.6436,-2.6434,0,0,-2.6395,-2.6409,-2.6433,-2.6448,-2.6466,-2.6512,-2.6587,-2.6632,-2.6665,-2.6692,-2.6754,-2.683,-2.6782,-2.6806,-2.678,-2.6838,-2.6979,-2.6779,-2.6779,-2.6815,-2.713,-2.7168,-2.7195,-2.6949,-2.6953,-2.6957,-2.7128,0,-2.6563,-2.669,-2.666,-2.6786,-2.6841,-2.6779,-2.6844,-2.6863,-2.6858,-2.6904,-2.6898,-2.6953,-2.6886,-2.69,-2.6954,-2.695,-2.7041,-2.6937,-2.7007,-2.701,-2.7002,-2.7224,-2.7264,-2.7425,-2.715,-2.7153,-2.7156,0,-2.6776,-2.681,-2.6942,-2.6951,-2.6973,-2.7032,-2.7071,-2.7116,-2.7137,-2.7129,-2.7156,-2.7119,-2.7194,-2.7111,-2.7214,-2.7145,-2.7171,-2.7174,-2.718,-2.7184,-2.7091,-2.7234,-2.7476,-2.75,-2.719,-2.7187,-2.7185,0,-2.6937,-2.7016,-2.7104,-2.7119,-2.7133,-2.7176,-2.7183,-2.7199,-2.7228,-2.7263,-2.7282,-2.7325,-2.7349,-2.7384,-2.7361,-2.7302,-2.7468,-2.7383,-2.7464,-2.7464,-2.75,-2.7498,-2.7749,-2.752,-2.7519,-2.7519,-2.7518,0,-2.7127,-2.721,-2.7177,-2.7231,-2.7322,-2.7288,-2.7379,-2.738,-2.7395,-2.7449,-2.7399,-2.7451,-2.7418,-2.7468,-2.7451,-2.7539,-2.755,-2.7546,-2.754,-2.755,-2.755,-2.7566,-2.7554,-2.7525,-2.7524,-2.7523,-2.7521,0,-2.7321,-2.7302,-2.7395,-2.74,-2.7403,-2.7471,-2.7475,-2.7527,-2.7518,-2.7587,-2.7601,-2.7588,-2.7644,-2.7625,-2.7685,-2.7674,-2.7786,-2.7766,-2.7778,-2.7773,-2.7855,-2.7847,-2.8124,-2.8158,-2.7907,-2.791,-2.7912,0,-2.7443,-2.7505,-2.7517,-2.7549,-2.756,-2.7613,-2.7642,-2.7611,-2.7644,-2.7673,-2.7721,-2.7773,-2.7812,-2.7906,-2.7902,-2.7948,-2.7928,-2.8022,-2.7935,-2.7943,-2.7929,-2.7925,-2.7931,-2.8039,-2.8042,-2.8045,-2.8047,0,-2.7661,-2.7649,-2.7693,-2.7734,-2.777,-2.7801,-2.7828,-2.7857,-2.7828,-2.7867,-2.7924,-2.7955,-2.8016,-2.8069,-2.8111,-2.812,-2.8079,-2.8074,-2.8095,-2.8105,-2.811,-2.8108,-2.7825,-2.8068,-2.8066,-2.8064,-2.8063,-2.8062,-2.7823,-2.7875,-2.7891,-2.7942,-2.7958,-2.7985,-2.8033,-2.803,-2.8076,-2.8123,-2.8103,-2.8168,-2.8188,-2.824,-2.8255,-2.8307,-2.827,-2.8301,-2.8309,-2.8317,-2.8327,-2.8102,-2.8314,-2.8314,-2.8313,-2.8313,-2.8312,0,-2.8038,-2.8045,-2.8092,-2.813,-2.8171,-2.8128,-2.8156,-2.8192,-2.825,-2.8272,-2.8312,-2.8377,-2.8428,-2.8429,-2.8476,-2.8518,-2.85,-2.8531,-2.8527,-2.853,-2.8357,-2.8333,-2.8544,-2.8544,-2.8544,-2.8544,-2.8544,-2.8544,-2.8154,-2.824,-2.823,-2.8325,-2.8332,-2.8395,-2.8414,-2.8438,-2.8455,-2.853,-2.8572,-2.8572,-2.8585,-2.8634,-2.8679,-2.8678,-2.8697,-2.8735,-2.8728,-2.8565,-2.8542,-2.852,-2.8498,-2.874,-2.874,-2.8896,-2.8898,-2.8899]},{"header":{"parameterUnit":"m.s-1","parameterCategory":1,"la1":30.2991,"la2":30.254,"lo1":-89.0895,"lo2":-89.0444,"dy":0.0017,"dx":0.0017,"nx":28,"ny":28,"refTime":"2025-08-08T21:00:00:Z","depth":0,"parameterNumber":3,"parameterNumberName":"V-component_of_WINDS"},"data":[0,0,0,0,0,0,0,0,0,0,0,0,0,0,0,0,0,0,0,0,0,0,0,0,0,0,0,0,0,0,0,0,0,0,0,0,0,0,0,0,0,0,0,0,0,0,0,0,0,0,0,0,0,0,0,0,0,0,1.0217,1.0217,0,1.0223,1.0223,1.0223,1.0203,1.0203,1.0202,1.0202,1.0207,1.0207,1.0208,0,0,0,0,0,0,0,0,0,0,0,0,0,1.0188,1.0189,1.0217,1.0217,1.0217,1.0223,1.0223,1.0223,1.0204,1.0203,1.0202,1.0201,1.0207,1.0207,1.0208,0,0,0,0,0,0,0,0,0,0,0,0,0,1.0198,1.0189,1.0217,1.0208,1.0207,1.0223,1.0223,1.0223,1.0204,1.0203,1.0202,1.0201,1.0206,1.0207,1.0208,1.0232,0,0,1.0211,1.0212,0,0,0,0,0,0,0,0,1.0197,1.0199,1.0209,1.0209,1.0208,1.0211,1.0214,1.0226,1.0204,1.0205,1.0202,1.0201,1.0209,1.021,1.0213,1.0232,1.0232,1.0212,1.0212,1.0213,1.0213,0,0,0,0,0,0,0,1.0197,1.0198,1.0219,1.0209,1.0209,1.0203,1.0204,1.0216,1.0212,1.0205,1.0203,1.0204,1.0208,1.0212,1.0213,1.0232,1.0211,1.0212,1.0213,1.0213,1.0271,1.0272,0,0,0,0,0,0,1.0197,1.0198,1.0219,1.0219,1.02,1.0205,1.0205,1.0211,1.0212,1.0211,1.0205,1.0204,1.021,1.0212,1.0213,1.024,1.0213,1.0213,1.0214,1.027,1.0271,1.0272,0,0,0,0,0,0,1.0197,1.0199,1.0219,1.0208,1.021,1.0206,1.0213,1.0212,1.0215,1.0212,1.0211,1.021,1.021,1.0211,1.0227,1.024,1.0214,1.0215,1.0269,1.027,1.0272,1.0294,0,0,0,0,0,0,1.0196,1.0199,1.0208,1.0209,1.0211,1.0233,1.0214,1.0212,1.0217,1.0215,1.0216,1.0215,1.0209,1.0226,1.0228,1.0241,1.0216,1.0268,1.027,1.0271,1.0292,1.0296,1.03,0,0,0,0,0,1.0195,1.0214,1.0209,1.0211,1.0222,1.0234,1.0235,1.0229,1.0218,1.0227,1.0225,1.0215,1.0238,1.0228,1.023,1.0243,1.0267,1.0269,1.0271,1.0291,1.0295,1.0299,0,0,0,0,0,0,1.0215,1.0214,1.0208,1.0228,1.0231,1.0231,1.0242,1.0234,1.024,1.0238,1.0229,1.0229,1.0246,1.0247,1.0235,1.0266,1.0251,1.0253,1.0265,1.0269,1.0273,1.0272,1.0217,0,0,0,0,0,1.0222,1.0232,1.023,1.0248,1.025,1.0246,1.0251,1.0245,1.0248,1.0249,1.0248,1.0251,1.0259,1.0264,1.0272,1.0293,1.0292,1.0303,1.0306,1.0309,1.0311,1.0322,1.0326,1.0279,1.0279,1.0279,0,0,1.0236,1.0237,1.0243,1.0252,1.0254,1.0264,1.0247,1.0258,1.0265,1.0251,1.0265,1.0265,1.0268,1.0286,1.0294,1.0287,1.0325,1.0312,1.0315,1.0315,1.0325,1.0329,1.0333,1.028,1.028,1.028,0,0,1.0266,1.0268,1.0283,1.0285,1.0289,1.0286,1.0289,1.029,1.0289,1.0304,1.0293,1.0301,1.0315,1.0317,1.032,1.0352,1.0343,1.0355,1.0373,1.0383,1.0387,1.039,1.0401,1.0405,1.0357,1.0357,1.0357,0,1.0283,1.0298,1.0292,1.0304,1.0308,1.0295,1.031,1.0312,1.0318,1.032,1.0312,1.0329,1.033,1.0349,1.0356,1.036,1.0363,1.0354,1.0387,1.039,1.0393,1.0403,1.0407,1.0358,1.0358,1.0358,1.0358,0,1.0318,1.0329,1.034,1.0346,1.0351,1.0364,1.036,1.0366,1.036,1.0358,1.0373,1.0374,1.0381,1.0385,1.038,1.0403,1.0398,1.0389,1.0373,1.0399,1.0408,1.0412,1.036,1.036,1.0359,1.0359,0,0,1.036,1.0363,1.0367,1.0369,1.0372,1.0379,1.0392,1.0399,1.0404,1.0409,1.0418,1.0431,1.0422,1.0426,1.042,1.043,1.0454,1.0419,1.0419,1.0425,1.0478,1.0484,1.0489,1.0448,1.0449,1.045,1.0478,0,1.0389,1.0411,1.0406,1.0427,1.0436,1.0425,1.0436,1.0439,1.0438,1.0445,1.0443,1.0452,1.044,1.0442,1.0451,1.0449,1.0464,1.0447,1.0456,1.0457,1.0455,1.0494,1.05,1.0526,1.0481,1.0482,1.0482,0,1.0426,1.0432,1.0454,1.0455,1.0459,1.0469,1.0474,1.0482,1.0485,1.0483,1.0487,1.048,1.0492,1.0478,1.0494,1.0483,1.0486,1.0486,1.0487,1.0486,1.047,1.0493,1.0535,1.0538,1.0488,1.0487,1.0487,0,1.0453,1.0467,1.0481,1.0484,1.0486,1.0493,1.0494,1.0496,1.0501,1.0506,1.0508,1.0515,1.0518,1.0524,1.0518,1.0509,1.0535,1.052,1.0533,1.0533,1.0538,1.0538,1.058,1.0543,1.0543,1.0543,1.0543,0,1.0485,1.0499,1.0494,1.0503,1.0518,1.0512,1.0527,1.0526,1.0528,1.0537,1.0528,1.0536,1.053,1.0537,1.0534,1.0547,1.0549,1.0547,1.0546,1.0547,1.0547,1.0549,1.0546,1.0544,1.0544,1.0543,1.0543,0,1.0517,1.0514,1.053,1.0531,1.0531,1.0542,1.0543,1.0551,1.0549,1.056,1.0562,1.0559,1.0567,1.0563,1.0572,1.0569,1.0587,1.0583,1.0586,1.0584,1.0597,1.0595,1.064,1.0645,1.0606,1.0607,1.0607,0,1.0537,1.0548,1.055,1.0555,1.0557,1.0565,1.057,1.0565,1.057,1.0574,1.0581,1.0589,1.0595,1.0609,1.0607,1.0614,1.061,1.0625,1.0611,1.0612,1.0609,1.0608,1.0608,1.0628,1.0628,1.0628,1.0629,0,1.0573,1.0571,1.0578,1.0585,1.0591,1.0596,1.06,1.0605,1.0599,1.0606,1.0614,1.0619,1.0628,1.0635,1.0641,1.0642,1.0634,1.0634,1.0637,1.0638,1.0638,1.0637,1.0592,1.0632,1.0632,1.0632,1.0631,1.0631,1.0599,1.0607,1.061,1.0618,1.0621,1.0625,1.0633,1.0632,1.0639,1.0646,1.0643,1.0653,1.0655,1.0662,1.0664,1.0671,1.0665,1.067,1.0671,1.0672,1.0673,1.0638,1.0673,1.0672,1.0672,1.0672,1.0672,0,1.0633,1.0634,1.0642,1.0648,1.0655,1.0648,1.0652,1.0658,1.0667,1.067,1.0676,1.0685,1.0693,1.0692,1.0699,1.0705,1.0701,1.0707,1.0705,1.0705,1.0679,1.0675,1.0709,1.0709,1.0709,1.0709,1.0709,1.0709,1.0652,1.0665,1.0664,1.0679,1.068,1.069,1.0693,1.0696,1.0699,1.071,1.0716,1.0716,1.0717,1.0724,1.073,1.073,1.0732,1.0738,1.0737,1.0711,1.0707,1.0704,1.07,1.0739,1.0739,1.0763,1.0763,1.0763]}]]